Regional Weather Roundup
Issued by NWS Midland/Odessa, TX

Home | Current Version | Previous Version | Text Only | Print | Product List | Glossary On
Versions: 1 2 3 4 5 6 7 8 9 10 11 12 13 14 15 16 17 18 19 20 21 22 23 24 25 26 27 28 29 30 31 32 33 34 35 36 37 38 39 40 41 42 43 44 45 46 47 48 49 50
000
ASUS44 KMAF 271910
RWRMAF
MIDLAND AREA WEATHER ROUNDUP
NATIONAL WEATHER SERVICE MIDLAND TX
200 PM CDT MON MAR 27 2017

...IN SOUTHWEST TEXAS AND SOUTHEAST NEW MEXICO...

CITY           SKY/WX    TMP DP  RH WIND       PRES   REMARKS
ALPINE         SUNNY     77  23  13 W16       30.04F
ANDREWS        FAIR      68  37  32 S3        29.97F
ARTESIA        SUNNY     66  36  32 SE12      29.95F
BIG SPRING     SUNNY     68  41  37 NW5       29.98F
CARLSBAD       SUNNY     69  33  26 SE8       29.94F
DRYDEN           N/A     86  30  13 CALM      29.88F
FORT STOCKTON  SUNNY     77  28  16 VRB5      29.95F
GUAD PASS      SUNNY     71  22  15 SW18G26   30.02F
HOBBS          SUNNY     66  32  28 SE8       29.99F
MARFA          SUNNY     73  24  16 VRB6      30.03F
MIDLAND AIRPK  SUNNY     71  36  28 SE6       29.96F
MIDLAND INTL   SUNNY     70  35  27 VRB3      29.96F
ODESSA         MOSUNNY   70  36  28 VRB3      29.96F
PECOS          SUNNY     68  35  29 CALM      29.95F
PRESIDIO       FAIR      82  25  12 S9        29.95F
SEMINOLE       SUNNY     66  37  34 CALM      29.98F
SNYDER         SUNNY     66  43  42 N3        29.96F
WINK           SUNNY     71  35  26 NW6       29.94F
$$
...OTHER STATIONS IN TEXAS...

CITY           SKY/WX    TMP DP  RH WIND       PRES   REMARKS
ABILENE        SUNNY     70  47  43 N8        29.94F
AMARILLO       SUNNY     64  36  35 VRB6      29.96F
AUSTIN         PTSUNNY   82  66  58 VRB5      29.87F
BROWNSVILLE    PTSUNNY   86  70  58 S18G24    29.83F
CORPUS CHRISTI PTSUNNY   82  71  69 SE14      29.85F
DALLAS FTW     MOSUNNY   68  54  60 NW10      29.91F
DEL RIO        SUNNY     82  61  48 CALM      29.85F
EL PASO        SUNNY     75  16  10 SW12G22   29.94F
HOUSTON INT    PTSUNNY   83  66  56 S6        29.88F
LUBBOCK        SUNNY     67  38  34 S8        29.97F
SAN ANGELO     SUNNY     75  41  29 NW5       29.92F
SAN ANTONIO    MOSUNNY   78  66  66 SE14      29.88F
WACO           SUNNY     74  60  61 N7        29.90F
WICHITA FALLS  NOT AVBL
$$
...OTHER LOCATIONS IN NEW MEXICO...

CITY           SKY/WX    TMP DP  RH WIND       PRES   REMARKS
ALAMAGORDO     SUNNY     72  25  17 W8        29.94F
ALBUQUERQUE    MOSUNNY   62  18  18 S7        29.95F
CANNON AFB     SUNNY     65  35  31 SW7G17    29.96F
CLOVIS         SUNNY     64  37  36 S10G17    29.97F
HOLLOMAN AFB   SUNNY     72  24  16 W16       29.96F
ROSWELL        SUNNY     67  33  28 SE12G20   30.00S
RUIDOSO        SUNNY     64  16  15 SW16G22   30.01F
SANTA FE       SUNNY     60  21  22 W8G18     29.96F
TRUTH OR CONSE SUNNY     70  24  17 SE12G21   29.92F
TUCUMCARI      SUNNY     68  35  29 SE8       29.91F
$$



USA.gov is the U.S. government's official web portal to all federal, state and local government web resources and services.